Flag for U.S.A. Weather past 2 weeks in Dallas, Texas, U.S.A.

Now
75 °F

Mostly cloudy.


Feels Like: 76 °F
Forecast: 69 / 77 °F
Wind: 22 mph from South

Location: Dallas Love Field

Current Time: May 7, 2015 at 1:41:02 AM

Latest Report: May 7, 2015 at 12:53 AM


Visibility: 10 mi

Pressure: 29.87 "Hg

Humidity: 79%

Dew point: 68 °F

Location of DallasLocation

Historic Weather in Dallas — Graph

°F

Dallas temperature yesterday

Maximum temperature yesterday: 85 °F (at 4:53 PM)
Minimum temperature yesterday: 69 °F (at 4:53 AM)
Average temperature yesterday: 75 °F

Past Weeks' High & Low Weather Summary

 TemperatureHumidityPressure
High88 °F (Apr 25, 3:53 PM)97% (Apr 24, 5:53 AM)30.10 "Hg (Apr 24, 5:53 AM)
Low48 °F (Apr 29, 4:53 AM)22% (Apr 25, 3:53 PM)29.54 "Hg (Apr 26, 8:53 PM)
Average70 °F66%29.90 "Hg
* Reported Apr 21 11:53 PM — May 6 11:53 PM, Dallas, Weather by CustomWeather, © 2015

Note: Actual official high and low records may vary slightly from our data, if they occured in-between our weather recording intervals... More about our weather records

Advertising

Dallas weather history for previous 24 hours

 ConditionsComfort  
Time TempWeatherWind HumidityBarometerVisibility
11:53 PM
Wed, May 6
75 °FMostly cloudy.20 mph79%29.88 "Hg10 mi
10:53 PM75 °FPassing clouds.16 mph79%29.87 "Hg10 mi
9:53 PM76 °FOvercast.17 mph77%29.85 "Hg10 mi
8:53 PM77 °FBroken clouds.22 mph74%29.83 "Hg10 mi
7:53 PM79 °FPartly sunny.18 mph67%29.83 "Hg10 mi
6:53 PM80 °FPartly sunny.20 mph64%29.81 "Hg10 mi
5:53 PM83 °FScattered clouds.17 mph61%29.82 "Hg10 mi
4:53 PM85 °FScattered clouds.16 mph53%29.84 "Hg10 mi
3:53 PM84 °FScattered clouds.13 mph59%29.86 "Hg10 mi
2:53 PM82 °FBroken clouds.16 mph60%29.89 "Hg10 mi
1:53 PM80 °FBroken clouds.14 mph64%29.90 "Hg10 mi
12:53 PM77 °FPartly sunny.13 mph71%29.93 "Hg10 mi
11:53 AM76 °FMostly cloudy.17 mph72%29.95 "Hg10 mi
11:00 AM75 °FPartly sunny.16 mph76%29.97 "Hg9 mi
9:53 AM72 °FMostly cloudy.17 mph81%29.95 "Hg9 mi
8:53 AM70 °FOvercast.20 mph87%29.95 "Hg9 mi
7:53 AM70 °FMostly cloudy.14 mph87%29.94 "Hg8 mi
6:53 AM69 °FMostly cloudy.17 mph90%29.93 "Hg8 mi
5:53 AM69 °FMostly cloudy.15 mph90%29.92 "Hg9 mi
4:53 AM69 °FMostly cloudy.15 mph90%29.93 "Hg7 mi
3:53 AM70 °FPartly cloudy.15 mph87%29.93 "Hg9 mi
2:53 AM70 °FLight rain. Fog.21 mph90%29.92 "Hg5 mi
1:59 AM70 °FThunderstorms. Fog.17 mph87%29.96 "Hg5 mi
Weather by CustomWeather, © 2015

See weather overviewHow to use our weather pages